N894A SABE-SAZM

Flight info

Callsign N894A
Flight time 0h 50m
Altitude 25000
Route PAL9 GBE W29 VOTRA VOTR2U RNAV 31
Aircraft LJ35/L-SG/C

Departure

Time 2026-05-04 02:05
Airport Aeroparque Jorge Newbery (SABE)

Arrival

Time 2026-05-04 02:55
Airport Ástor Piazzola International Airport (SAZM)
Time Latitude Longitude Altitude Speed Heading
2026-05-04 01:52 -34.56464 -58.40924 21 ft 0 kts 214°
2026-05-04 02:02 -34.56470 -58.40929 23 ft 7 kts 216°
2026-05-04 02:02 -34.56493 -58.40947 21 ft 0 kts 210°
2026-05-04 02:02 -34.56499 -58.40946 21 ft 5 kts 143°
2026-05-04 02:03 -34.56508 -58.40847 22 ft 19 kts 70°
2026-05-04 02:03 -34.56462 -58.40725 20 ft 15 kts 64°
2026-05-04 02:03 -34.56428 -58.40660 19 ft 5 kts 292°
2026-05-04 02:03 -34.56421 -58.40680 19 ft 0 kts 307°
2026-05-04 02:05 -34.56323 -58.40858 24 ft 67 kts 303°
2026-05-04 02:05 -34.55959 -58.41508 38 ft 140 kts 308°
2026-05-04 02:05 -34.55372 -58.42510 773 ft 155 kts 312°
2026-05-04 02:05 -34.54547 -58.43381 1628 ft 154 kts 342°
2026-05-04 02:06 -34.53502 -58.43332 2661 ft 163 kts 18°
2026-05-04 02:06 -34.52467 -58.42606 3711 ft 179 kts 27°
2026-05-04 02:06 -34.51383 -58.41776 4785 ft 190 kts 28°
2026-05-04 02:06 -34.50153 -58.40840 5066 ft 222 kts 29°
2026-05-04 02:07 -34.48813 -58.39817 5071 ft 239 kts 29°
2026-05-04 02:07 -34.47365 -58.38713 5070 ft 252 kts 29°
2026-05-04 02:07 -34.45880 -58.37500 5088 ft 264 kts 40°
2026-05-04 02:07 -34.45081 -58.35472 5110 ft 282 kts 84°
2026-05-04 02:08 -34.45120 -58.33066 5081 ft 290 kts 96°
2026-05-04 02:08 -34.45543 -58.30672 5106 ft 296 kts 116°
2026-05-04 02:08 -34.46848 -58.28781 5171 ft 296 kts 150°
2026-05-04 02:08 -34.48791 -58.28080 5173 ft 295 kts 182°
2026-05-04 02:09 -34.50697 -58.28593 5110 ft 278 kts 220°
2026-05-04 02:09 -34.51716 -58.30421 5083 ft 261 kts 257°
2026-05-04 02:09 -34.51326 -58.32407 5052 ft 247 kts 291°
2026-05-04 02:09 -34.51198 -58.34482 5028 ft 250 kts 268°
2026-05-04 02:10 -34.51518 -58.36575 5035 ft 258 kts 259°
2026-05-04 02:10 -34.51976 -58.38331 5046 ft 266 kts 256°
2026-05-04 02:10 -34.52656 -58.40457 5040 ft 275 kts 251°
2026-05-04 02:10 -34.53514 -58.42555 5047 ft 280 kts 247°
2026-05-04 02:11 -34.54409 -58.44642 5239 ft 277 kts 248°
2026-05-04 02:11 -34.55201 -58.46599 5475 ft 272 kts 249°
2026-05-04 02:11 -34.56004 -58.48629 5698 ft 272 kts 249°
2026-05-04 02:11 -34.56841 -58.50712 6294 ft 270 kts 249°
2026-05-04 02:12 -34.57657 -58.52720 7278 ft 267 kts 249°
2026-05-04 02:12 -34.58483 -58.54793 8319 ft 280 kts 248°
2026-05-04 02:12 -34.59579 -58.56818 9389 ft 295 kts 232°
2026-05-04 02:12 -34.61183 -58.58432 10469 ft 305 kts 216°
2026-05-04 02:13 -34.63166 -58.59434 11535 ft 314 kts 199°
2026-05-04 02:13 -34.65364 -58.59668 12659 ft 323 kts 182°
2026-05-04 02:13 -34.67549 -58.59102 13837 ft 327 kts 169°
2026-05-04 02:13 -34.69739 -58.58270 14989 ft 325 kts 169°
2026-05-04 02:14 -34.71859 -58.57466 16128 ft 323 kts 170°
2026-05-04 02:14 -34.74001 -58.56676 17293 ft 322 kts 171°
2026-05-04 02:14 -34.76148 -58.55886 18428 ft 322 kts 172°
2026-05-04 02:14 -34.78241 -58.55101 19725 ft 309 kts 173°
2026-05-04 02:15 -34.80262 -58.54344 21036 ft 300 kts 174°
2026-05-04 02:15 -34.82231 -58.53646 22329 ft 287 kts 180°
2026-05-04 02:15 -34.84140 -58.53421 23612 ft 270 kts 191°
2026-05-04 02:15 -34.85999 -58.53290 24628 ft 266 kts 189°
2026-05-04 02:16 -34.87724 -58.53145 25576 ft 262 kts 190°
2026-05-04 02:16 -34.89307 -58.53025 26252 ft 268 kts 190°
2026-05-04 02:16 -34.91205 -58.52907 26159 ft 282 kts 189°
2026-05-04 02:16 -34.93148 -58.52747 26149 ft 279 kts 189°
2026-05-04 02:17 -34.95131 -58.52597 25820 ft 295 kts 189°
2026-05-04 02:17 -34.97259 -58.52458 25524 ft 316 kts 188°
2026-05-04 02:17 -34.99509 -58.52291 25273 ft 332 kts 187°
2026-05-04 02:17 -35.01862 -58.52104 25055 ft 344 kts 187°
2026-05-04 02:18 -35.04271 -58.51916 25040 ft 354 kts 187°
2026-05-04 02:18 -35.06827 -58.51744 25040 ft 382 kts 187°
2026-05-04 02:18 -35.09527 -58.51558 25041 ft 406 kts 186°
2026-05-04 02:18 -35.12417 -58.51331 25041 ft 425 kts 185°
2026-05-04 02:19 -35.15419 -58.51092 25042 ft 439 kts 185°
2026-05-04 02:19 -35.18508 -58.50860 25044 ft 450 kts 185°
2026-05-04 02:19 -35.21657 -58.50628 25043 ft 457 kts 185°
2026-05-04 02:19 -35.24849 -58.50384 25043 ft 462 kts 185°
2026-05-04 02:20 -35.28071 -58.50134 25038 ft 465 kts 185°
2026-05-04 02:20 -35.31314 -58.49886 25038 ft 467 kts 185°
2026-05-04 02:20 -35.34556 -58.49641 25035 ft 467 kts 185°
2026-05-04 02:20 -35.37801 -58.49394 25027 ft 468 kts 185°
2026-05-04 02:21 -35.41051 -58.49145 25020 ft 468 kts 185°
2026-05-04 02:21 -35.44255 -58.48899 25018 ft 468 kts 185°
2026-05-04 02:21 -35.47508 -58.48651 25018 ft 468 kts 185°
2026-05-04 02:21 -35.50757 -58.48402 25022 ft 468 kts 185°
2026-05-04 02:22 -35.53968 -58.48150 25018 ft 450 kts 185°
2026-05-04 02:22 -35.57004 -58.47890 25020 ft 425 kts 185°
2026-05-04 02:22 -35.59885 -58.47664 25016 ft 406 kts 186°
2026-05-04 02:22 -35.62646 -58.47464 25019 ft 391 kts 186°
2026-05-04 02:23 -35.65289 -58.47264 25015 ft 380 kts 186°
2026-05-04 02:23 -35.67897 -58.47059 25013 ft 373 kts 186°
2026-05-04 02:23 -35.70489 -58.46864 25015 ft 374 kts 187°
2026-05-04 02:23 -35.73094 -58.46669 25017 ft 376 kts 186°
2026-05-04 02:24 -35.75719 -58.46315 24987 ft 387 kts 178°
2026-05-04 02:24 -35.78339 -58.45454 25019 ft 390 kts 175°
2026-05-04 02:24 -35.80964 -58.44584 25015 ft 391 kts 175°
2026-05-04 02:24 -35.83611 -58.43737 25017 ft 396 kts 175°
2026-05-04 02:25 -35.86289 -58.42873 25019 ft 400 kts 175°
2026-05-04 02:25 -35.88990 -58.41983 25018 ft 403 kts 175°
2026-05-04 02:25 -35.91709 -58.41088 25014 ft 405 kts 175°
2026-05-04 02:25 -35.94401 -58.40210 25019 ft 407 kts 175°
2026-05-04 02:26 -35.97142 -58.39315 25015 ft 408 kts 175°
2026-05-04 02:26 -35.99893 -58.38412 25012 ft 410 kts 175°
2026-05-04 02:26 -36.02649 -58.37507 25013 ft 411 kts 175°
2026-05-04 02:26 -36.05413 -58.36600 25017 ft 412 kts 175°
2026-05-04 02:27 -36.08194 -58.35689 25012 ft 414 kts 175°
2026-05-04 02:27 -36.10989 -58.34771 25016 ft 416 kts 174°
2026-05-04 02:27 -36.13794 -58.33847 25017 ft 418 kts 174°
2026-05-04 02:27 -36.16558 -58.32937 25014 ft 419 kts 174°
2026-05-04 02:28 -36.19397 -58.32002 25010 ft 420 kts 174°
2026-05-04 02:28 -36.22224 -58.31070 25011 ft 421 kts 174°
2026-05-04 02:28 -36.25063 -58.30134 25011 ft 422 kts 174°
2026-05-04 02:28 -36.27897 -58.29198 25009 ft 422 kts 174°
2026-05-04 02:29 -36.30740 -58.28258 25012 ft 423 kts 174°
2026-05-04 02:29 -36.33583 -58.27318 25009 ft 423 kts 174°
2026-05-04 02:29 -36.36431 -58.26376 25009 ft 423 kts 174°
2026-05-04 02:29 -36.39255 -58.25441 25002 ft 424 kts 174°
2026-05-04 02:30 -36.42096 -58.24500 25008 ft 424 kts 174°
2026-05-04 02:30 -36.44950 -58.23551 25005 ft 424 kts 174°
2026-05-04 02:30 -36.47804 -58.22604 25008 ft 424 kts 174°
2026-05-04 02:30 -36.50661 -58.21658 25003 ft 425 kts 174°
2026-05-04 02:31 -36.53515 -58.20708 25004 ft 425 kts 174°
2026-05-04 02:31 -36.56369 -58.19757 25002 ft 425 kts 174°
2026-05-04 02:31 -36.59184 -58.18820 25003 ft 425 kts 174°
2026-05-04 02:31 -36.62045 -58.17871 25000 ft 425 kts 175°
2026-05-04 02:32 -36.64903 -58.16917 24999 ft 425 kts 174°
2026-05-04 02:32 -36.67759 -58.15959 24994 ft 426 kts 174°
2026-05-04 02:32 -36.70617 -58.15005 24992 ft 425 kts 175°
2026-05-04 02:32 -36.73475 -58.14054 24990 ft 426 kts 175°
2026-05-04 02:33 -36.76341 -58.13097 24988 ft 426 kts 174°
2026-05-04 02:33 -36.79204 -58.12135 24990 ft 426 kts 175°
2026-05-04 02:33 -36.82017 -58.11191 24990 ft 426 kts 175°
2026-05-04 02:33 -36.84881 -58.10232 24990 ft 426 kts 175°
2026-05-04 02:34 -36.87742 -58.09274 24988 ft 426 kts 175°
2026-05-04 02:34 -36.90607 -58.08313 24986 ft 426 kts 175°
2026-05-04 02:34 -36.93443 -58.07358 24699 ft 413 kts 175°
2026-05-04 02:34 -36.96237 -58.06425 23506 ft 418 kts 175°
2026-05-04 02:35 -36.99026 -58.05483 22563 ft 411 kts 174°
2026-05-04 02:35 -37.01753 -58.04560 21864 ft 408 kts 175°
2026-05-04 02:35 -37.04467 -58.03641 21308 ft 403 kts 174°
2026-05-04 02:35 -37.07110 -58.02330 20679 ft 414 kts 162°
2026-05-04 02:36 -37.09575 -58.00438 20198 ft 415 kts 156°
2026-05-04 02:36 -37.11974 -57.98457 19695 ft 412 kts 156°
2026-05-04 02:36 -37.14364 -57.96495 19210 ft 409 kts 156°
2026-05-04 02:36 -37.16747 -57.94560 18736 ft 407 kts 156°
2026-05-04 02:37 -37.19095 -57.92647 18284 ft 404 kts 156°
2026-05-04 02:37 -37.21436 -57.90727 17781 ft 398 kts 156°
2026-05-04 02:37 -37.23661 -57.88878 17271 ft 370 kts 156°
2026-05-04 02:37 -37.25741 -57.87156 16768 ft 347 kts 156°
2026-05-04 02:38 -37.27713 -57.85545 16269 ft 330 kts 157°
2026-05-04 02:38 -37.29593 -57.84009 15775 ft 316 kts 156°
2026-05-04 02:38 -37.31376 -57.82544 15292 ft 306 kts 156°
2026-05-04 02:38 -37.33133 -57.81098 14815 ft 297 kts 156°
2026-05-04 02:39 -37.34839 -57.79696 14343 ft 290 kts 156°
2026-05-04 02:39 -37.36515 -57.78319 13882 ft 285 kts 156°
2026-05-04 02:39 -37.38153 -57.76970 13380 ft 280 kts 156°
2026-05-04 02:39 -37.39795 -57.75713 12861 ft 272 kts 162°
2026-05-04 02:40 -37.41418 -57.74492 12344 ft 273 kts 154°
2026-05-04 02:40 -37.42946 -57.73102 11855 ft 270 kts 152°
2026-05-04 02:40 -37.44441 -57.71753 11394 ft 265 kts 155°
2026-05-04 02:40 -37.45970 -57.70501 10977 ft 259 kts 156°
2026-05-04 02:41 -37.47428 -57.69318 10953 ft 245 kts 156°
2026-05-04 02:41 -37.48845 -57.68152 10950 ft 241 kts 156°
2026-05-04 02:41 -37.50250 -57.66993 10946 ft 243 kts 156°
2026-05-04 02:41 -37.51695 -57.65808 10949 ft 254 kts 156°
2026-05-04 02:42 -37.53231 -57.64632 10953 ft 264 kts 158°
2026-05-04 02:42 -37.54815 -57.63387 10956 ft 273 kts 156°
2026-05-04 02:42 -37.56468 -57.62084 10731 ft 289 kts 157°
2026-05-04 02:42 -37.57892 -57.60977 10509 ft 298 kts 157°
2026-05-04 02:43 -37.59682 -57.59583 10139 ft 306 kts 156°
2026-05-04 02:43 -37.61498 -57.58158 9759 ft 308 kts 156°
2026-05-04 02:43 -37.63318 -57.56731 9345 ft 309 kts 156°
2026-05-04 02:43 -37.65142 -57.55305 8932 ft 310 kts 156°
2026-05-04 02:44 -37.66972 -57.53872 8525 ft 310 kts 156°
2026-05-04 02:44 -37.68811 -57.52430 8133 ft 311 kts 156°
2026-05-04 02:44 -37.70636 -57.50995 7746 ft 308 kts 156°
2026-05-04 02:44 -37.72423 -57.49590 7367 ft 305 kts 156°
2026-05-04 02:45 -37.74216 -57.48183 6988 ft 303 kts 156°
2026-05-04 02:45 -37.75986 -57.46789 6613 ft 292 kts 156°
2026-05-04 02:45 -37.77657 -57.45459 6232 ft 276 kts 156°
2026-05-04 02:45 -37.79247 -57.44203 5815 ft 265 kts 156°
2026-05-04 02:46 -37.80787 -57.42993 5397 ft 257 kts 157°
2026-05-04 02:46 -37.82288 -57.41811 4976 ft 252 kts 157°
2026-05-04 02:46 -37.83764 -57.40647 4552 ft 248 kts 157°
2026-05-04 02:46 -37.85224 -57.39496 4126 ft 246 kts 156°
2026-05-04 02:47 -37.86674 -57.38353 3714 ft 245 kts 156°
2026-05-04 02:47 -37.88121 -57.37226 3305 ft 245 kts 156°
2026-05-04 02:47 -37.89539 -57.36078 2886 ft 245 kts 154°
2026-05-04 02:47 -37.90987 -57.34927 2471 ft 246 kts 154°
2026-05-04 02:48 -37.92508 -57.34023 2054 ft 238 kts 174°
2026-05-04 02:48 -37.94115 -57.33768 1714 ft 225 kts 193°
2026-05-04 02:48 -37.95556 -57.34043 1704 ft 195 kts 211°
2026-05-04 02:48 -37.96724 -57.34663 1691 ft 173 kts 226°
2026-05-04 02:49 -37.97687 -57.35484 1689 ft 163 kts 232°
2026-05-04 02:49 -37.98598 -57.36273 1694 ft 159 kts 232°
2026-05-04 02:49 -37.99500 -57.37052 1690 ft 155 kts 233°
2026-05-04 02:49 -38.00380 -57.37820 1686 ft 153 kts 233°
2026-05-04 02:50 -38.01185 -57.38642 1698 ft 138 kts 250°
2026-05-04 02:50 -38.01568 -57.39656 1694 ft 121 kts 271°
2026-05-04 02:50 -38.01615 -57.40665 1691 ft 111 kts 288°
2026-05-04 02:50 -38.01388 -57.41574 1701 ft 107 kts 303°
2026-05-04 02:51 -38.00984 -57.42370 1699 ft 109 kts 306°
2026-05-04 02:51 -38.00575 -57.43189 1700 ft 111 kts 306°
2026-05-04 02:51 -38.00162 -57.44007 1706 ft 113 kts 306°
2026-05-04 02:51 -37.99735 -57.44851 1706 ft 115 kts 306°
2026-05-04 02:52 -37.99303 -57.45707 1708 ft 116 kts 306°
2026-05-04 02:52 -37.98869 -57.46563 1706 ft 114 kts 306°
2026-05-04 02:52 -37.98449 -57.47392 1708 ft 111 kts 307°
2026-05-04 02:52 -37.98014 -57.48246 1545 ft 119 kts 306°
2026-05-04 02:53 -37.97550 -57.49159 1383 ft 127 kts 306°
2026-05-04 02:53 -37.97059 -57.50125 1203 ft 134 kts 307°
2026-05-04 02:53 -37.96595 -57.51043 1030 ft 117 kts 308°
2026-05-04 02:53 -37.96151 -57.51918 867 ft 122 kts 307°
2026-05-04 02:54 -37.95670 -57.52866 700 ft 133 kts 307°
2026-05-04 02:54 -37.95156 -57.53878 526 ft 138 kts 308°
2026-05-04 02:54 -37.94646 -57.54880 334 ft 134 kts 308°
2026-05-04 02:54 -37.94160 -57.55886 194 ft 133 kts 307°
2026-05-04 02:55 -37.93364 -57.57435 46 ft 50 kts 301°
2026-05-04 02:55 -37.93207 -57.57749 48 ft 26 kts 302°
2026-05-04 02:55 -37.93136 -57.57880 48 ft 10 kts 301°
2026-05-04 02:56 -37.93136 -57.57959 48 ft 11 kts 232°
2026-05-04 02:56 -37.93206 -57.58020 48 ft 4 kts 214°
2026-05-04 02:56 -37.93237 -57.58045 48 ft 0 kts 216°
2026-05-04 02:56 -37.93256 -57.58045 48 ft 8 kts 154°
2026-05-04 02:57 -37.93306 -57.58039 48 ft 6 kts 270°
2026-05-04 02:57 -37.93268 -57.58101 48 ft 8 kts 327°
2026-05-04 02:57 -37.93253 -57.58113 48 ft 0 kts 327°